www.pogodaiklimat.ru

Погода и климат >> Архив погоды >> Кувейт >> Остров Файлака


ПОГОДА Остров Файлака

  • Прогноз погоды Остров Файлака
  • Монитор погоды Остров Файлака

АРХИВ ПОГОДЫ Остров Файлака

Время (UTC), дата Ветер
(напр.,м/с)
 
Видим.   Явления Облачность Т
(С)
Тd
(С)
f
(%)
Тe
(С)
Тes
(С)
Комфортность P
(гПа)
Po
(гПа)
Тmin
(С)
Tmax
(С)
R
(мм)
R24
(мм)
S
(см)
06 13.02 СЗ 4-4
{5}
н/о н/о +14.2 +9.5 73 +13 +13 1025.5 1024.9
09 13.02 С 4-6
{7}
н/о н/о +17.6 +9.4 59 +17 +17 1024.4 1023.8
12 13.02 В 1-2
{7}
н/о н/о +18.6 +8.6 52 +20 +20 1022.6 1022.0
15 13.02 ЮЗ 3-3
{5}
н/о н/о +14.8 +10.1 73 +14 +14 1022.8 1022.2
18 13.02 Ю 3-3
{5}
н/о н/о +14.8 +10.9 77 +14 +14 1022.4 1021.8
21 13.02 ЮЗ 1-2
{3}
н/о н/о +13.9 +12.1 89 +14 +14 1021.7 1021.1 +9.1 +19.8
00 14.02 С 3-3
{3}
13 км н/о +11.7 +10.9 95 +10 +10 1021.0 1020.4
03 14.02 С 3-3
{4}
н/о н/о +12.1 +9.2 82 +11 +11 1020.5 1019.9
06 14.02 ЮВ 2-3
{4}
н/о н/о +16.3 +10.6 69 +16 +16 1022.0 1021.4
09 14.02 Ю 4-6
{6}
н/о н/о +18.0 +12.0 68 +18 +18 1020.2 1019.6
12 14.02 ЮВ 5-8
{8}
н/о н/о +18.0 +10.7 62 +18 +18 1017.4 1016.8
15 14.02 Ю 6-8
{9}
н/о н/о +17.1 +12.9 76 +16 +16 1018.3 1017.7
18 14.02 ЮВ 5-7
{10}
н/о н/о +16.6 +13.9 84 +16 +16 1016.3 1015.7
21 14.02 В 5-7
{8}
н/о н/о +16.5 +13.6 83 +16 +16 1016.5 1015.9 +10.6 +19.0
00 15.02 ЮВ 4-6
{9}
н/о н/о +15.9 +13.1 83 +15 +15 1015.6 1015.0
03 15.02 В 7-12
{12}
н/о н/о +17.1 +13.1 77 +16 +16 1014.4 1013.8
06 15.02 ЮВ 6-11
{12}
н/о н/о +18.5 +14.9 80 +19 +19 1015.2 1014.6
09 15.02 ЮВ 9-14
{17}
н/о н/о +18.7 +15.7 83 +19 +19 1013.8 1013.2
12 15.02 ЮВ 9-15
{17}
н/о н/о +17.4 +14.6 84 +16 +16 1012.6 1012.0
15 15.02 ЮВ 7-12
{14}
н/о н/о +16.6 +14.6 88 +15 +15 1013.7 1013.1
18 15.02 ЮВ 8-12
{14}
н/о н/о +17.5 +15.0 85 +16 +16 1014.5 1013.9
21 15.02 Ю 5-7
{12}
н/о н/о +17.3 +15.4 89 +17 +17 1014.9 1014.3 +15.7 +19.9
00 16.02 З 2-2
{12}
н/о н/о +16.0 +14.7 92 +16 +16 1014.6 1014.0
03 16.02 С 11-13
{13}
н/о н/о +14.9 +12.8 87 +12 +12 1015.7 1015.1
09 16.02 С 9-12
{16}
н/о н/о +18.8 +9.8 56 +19 +19 1018.2 1017.6
12 16.02 С 5-6
{16}
н/о н/о +19.2 +9.7 54 +20 +20 1017.2 1016.6
15 16.02 С 7-9
{10}
н/о н/о +17.2 +7.8 54 +16 +16 1018.4 1017.8
18 16.02 С 8-10
{11}
н/о н/о +15.4 +8.1 62 +14 +14 1020.4 1019.8
21 16.02 С 6-7
{10}
н/о н/о +14.1 +7.7 65 +12 +12 1020.2 1019.6 +13.9 +19.6
00 17.02 СЗ 5-6
{10}
н/о н/о +11.9 +7.7 75 +10 +10 1019.6 1019.0
03 17.02 СЗ 4-5
{5}
н/о н/о +10.3 +7.0 80 +8 +8 1020.3 1019.7
06 17.02 З 4-5
{5}
н/о н/о +15.5 +8.4 63 +15 +15 1021.8 1021.2
09 17.02 З 4-6
{7}
н/о н/о +18.6 +7.7 49 +19 +19 1020.7 1020.1
12 17.02 СВ 2-3
{7}
н/о н/о +19.3 +7.2 45 +21 +21 комфорт 1018.3 1017.7
15 17.02 ЮВ 2-3
{4}
н/о н/о +16.1 +10.6 70 +16 +16 1018.0 1017.4
18 17.02 С 5-6
{7}
н/о н/о +16.2 +9.8 66 +15 +15 1018.9 1018.3
21 17.02 С 4-5
{6}
н/о н/о +15.2 +9.3 68 +14 +14 1018.4 1017.8 +9.9 +20.3
00 18.02 С 2-3
{6}
н/о н/о +12.8 +10.9 88 +12 +12 1017.8 1017.2
03 18.02 СЗ 3-4
{4}
н/о н/о +10.6 +8.9 89 +8 +8 1017.8 1017.2
06 18.02 СЗ 2-3
{4}
н/о н/о +16.5 +10.0 65 +17 +17 1018.7 1018.1
09 18.02 З 2-4
{6}
н/о н/о +19.2 +6.8 44 +20 +20 1017.4 1016.8
15 18.02 ЮВ 2-3
{6}
н/о н/о +16.0 +6.9 55 +16 +16 1013.6 1013.0
18 18.02 ЮЗ 2-3
{6}
н/о н/о +14.4 +9.2 71 +14 +14 1014.6 1014.0
21 18.02 СЗ 2-4
{4}
н/о н/о +13.5 +9.3 76 +13 +13 1013.1 1012.5 +10.4 +20.5
00 19.02 СВ 3-5
{7}
н/о н/о +14.7 +8.6 67 +14 +14 1013.1 1012.5
03 19.02 С 4-5
{5}
н/о н/о +14.3 +10.7 79 +13 +13 1013.6 1013.0
06 19.02 С 6-7
{7}
н/о н/о +14.7 +9.9 73 +13 +13 1015.0 1014.4
09 19.02 С 7-9
{11}
н/о н/о +16.9 +8.4 57 +16 +16 1015.5 1014.9
12 19.02 С 6-9
{12}
н/о н/о +19.4 +6.0 42 +20 +20 1014.5 1013.9
15 19.02 СЗ 7-9
{10}
н/о н/о +16.9 +6.6 51 +16 +16 1015.9 1015.3
18 19.02 СЗ 7-10
{10}
н/о н/о +15.5 +6.9 57 +14 +14 1018.2 1017.6
21 19.02 СЗ 4-6
{9}
н/о н/о +13.9 +8.0 68 +12 +12 1018.5 1017.9 +13.4 +19.6
00 20.02 СЗ 4-5
{9}
н/о н/о +11.5 +7.5 76 +9 +9 1018.5 1017.9
03 20.02 З 4-5
{6}
н/о н/о +10.6 +6.8 77 +8 +8 1019.3 1018.7

 

Местоположение метеостанции Остров Файлака (Кувейт): широта 29.47 долгота 48.28 высота над уровнем моря 5 м.

В архиве по умолчанию представлена погода Остров Файлака за последнюю неделю. Архивные данные за месяц целиком и за предыдущие месяцы, начиная с января 2011 года, Вы можете получить, выбрав интересующий диапазон дат из раскрывающегося списка и нажав кнопку "Ввод!".


*Определитесь, кто Вы:
робот инопланетянин человек

Внимание! Время в таблицах - всемирное. Для получения местного времени необходимо прибавить поправку, которая равна 3 ч.

Смотрите также архив погоды в соседних городах и на ближайших метеорологических станциях:

Погода в Аль-Шуаиба (Кувейт) (22 км)
Погода в Кувейт Сити (Кувейт) (27 км)
Погода на Бубияне (Кувейт) (35 км)
Погода на Экспериментальной ферме (Кувейт) (39 км)
Погода в Эль-Кувейте (Кувейт) (41 км)
Погода на Метеостанции Sabriyah (Кувейт) (52 км)
Погода в Сулайбии (Кувейт) (59 км)
Погода в Эль-Фао (Ирак) (61 км)
Погода в Эль-Джахра (Кувейт) (61 км)
Погода в Порту Juluiah (Кувейт) (67 км)

Пояснения к столбцам:

Ветер - указаны скорость ветра в м/с - средняя за 10 мин, порывы в срок и между сроками (в фигурных скобках) и направление, откуда дует ветер: С - северный, СВ - северо-восточный, В - восточный, ЮВ - юго-восточный, Ю - южный, ЮЗ - юго-западный, З - западный, СЗ - северо-западный.
Видимость - горизонтальная дальность видимости в метрах или километрах. При видимости от 1 до 10 км при отсутствии осадков обычно наблюдается дымка, при ухудшении видимости до 1 км и менее - туман. В сухую погоду видимость может ухудшаться дымом, пылью или мглою.
Явления - указаны атмосферные явления, наблюдавшиеся в срок или в последний час перед сроком; фигурными скобками обозначены явления, наблюдавшиеся между сроками (за 1-3 часа до срока); квадратными скобками обозначены град или гололедные отложения с указанием их диаметра в мм.
Облачность - указаны через наклонную черту общая и нижняя облачность в баллах и высота нижней границы облаков в метрах; квадратными скобками обозначены формы облаков: Ci - перистые, Cs - перисто-слоистые, Cc - перисто-кучевые, Ac - высококучевые, As - высокослоистые, Sc - слоисто-кучевые, Ns - слоисто-дождевые, Cu - кучевые, Cb - кучево-дождевые. Подробнее классификацию облаков см. в Атласе облаков (PDF).
T - Температура воздуха - температура, измеренная на высоте 2 м над землей.
Td - Температура точки росы - температура, при понижении до которой содержащийся в воздухе водяной пар достигнет насыщения.
f - Относительная влажность воздуха - влажноcть воздуха, измеренная на высоте 2 м над землей.
Te - Эффективная температура - температура, которую ощущает одетый по сезону человек в тени. Характеристика душности погоды. При расчете учитывается влияние влажности воздуха и скорости ветра на теплоощущения человека.
Tes - Эффективная температура на солнце - температура, которую ощущает человек, с поправкой на солнечный нагрев. Характеристика знойности погоды. Зависит от высоты солнца над горизонтом, облачности и скорости ветра. Ночью, в пасмурную погоду, а также при ветре 12 м/с и более поправка равна нулю.
P - Атмосферное давление - приведенное к уровню моря атмосферное давление.
Po - Атмосферное давление - измеренное на уровне метеостанции атмосферное давление.
Tmin - Минимальная температура - минимум температуры воздуха на высоте 2 м над землей.
Tmax - Максимальная температура - максимум температуры воздуха на высоте 2 м над землей.
R - Количество осадков - Количество выпавших осадков за период времени, мм. При наведении курсора мыши на число - период времени, за который выпало указанное количество осадков.
R24 - Количество осадков - Количество выпавших осадков за 24 часа, мм.
S - Снежный покров - Высота снежного покрова, см. При наведении курсора мыши на число - состояние снежного покрова и степень покрытия местности в баллах.